Location: Klein M�hlingen
(51.9472°N, 11.7453°E)
Time: 02:08:05
(UTC+00:00)

Cosmos 44 Rocket - Pass Details

Date: 09 April 2020
Orbit: 656 x 734 km, 65.1° (Epoch: 05 June)

Event Time Altitude Azimuth Distance (km) Brightness Sun altitude
Exits shadow 23:53:59 47° 26° (NNE) 876 4.1 -29.4°
Drops below altitude 10° 23:57:24 10° 40° (NE) 2,085 6.5 -29.3°
Sets 23:59:44 0° 42° (NE) 3,007 7.5 -29.2°
